Printer-friendly version

IAU Minor Planet Center

Minor Planet Center

MPEC 2000-E63: 2000 BJ19

The following Minor Planet Electronic Circular may be linked-to from your own Web pages, but must not otherwise be redistributed electronically.


Read MPEC 2000-E62 Read MPEC 2000-E64


M.P.E.C. 2000-E63                                Issued 2000 Mar. 15, 21:08 UT

     The Minor Planet Electronic Circulars contain information on unusual
         minor planets and routine data on comets.  They are published
   on behalf of Commission 20 of the International Astronomical Union by the
          Minor Planet Center, Smithsonian Astrophysical Observatory,
                          Cambridge, MA 02138, U.S.A.

             Prepared using the Tamkin Foundation Computer Network

             BMARSDEN@CFA.HARVARD.EDU or GWILLIAMS@CFA.HARVARD.EDU
          URL http://cfa-www.harvard.edu/iau/mpc.html  ISSN 1523-6714

                                   2000 BJ19

                           Revision to MPEC 2000-C14

Observations:
     K00B19J 5 1997 03 28.18333 07 27 33.24 +25 58 58.2                      675
     K00B19J 5 1997 03 28.20764 07 27 33.17 +25 59 03.0                      675

Observer details:
675 Palomar Mountain.  Trail located and measured by DANEOPS (A. Gnadig).
    1.2-m Schmidt.

Orbital elements:
2000 BJ19
Epoch 2000 Feb. 26.0 TT = JDT 2451600.5                 Williams
M 224.93807              (2000.0)            P               Q
n   0.67130739     Peri.  175.41589     +0.60629394     +0.69418072
a   1.2917796      Node   131.28730     -0.74505064     +0.66641662
e   0.7637492      Incl.   31.08589     -0.27804174     -0.27203314
P   1.47           H   15.7           G   0.15           U   6
Residuals in seconds of arc
970328 675  0.8-  0.6+    000203 422  0.5-  0.2-    000207 413  0.2-  0.3-
970328 675  0.9+  0.7-    000203 422  0.9-  0.4-    000207 413  0.1-  0.2-
000130 703  0.1-  0.5+    000205 704  0.1-  0.1+    000207 413  0.1+  0.4-
000130 703  0.7-  0.3+    000205 704  0.2-  0.2+    000208 704  0.7+  0.4+
000130 703  0.1+  0.7+    000205 704  0.6-  0.1-    000208 704  0.1-  0.6-
000130 703  0.6-  0.1-    000205 704  0.9+  0.4+    000208 704  0.0   0.3-
000131 704  0.0   1.1-    000205 704  0.1-  0.4-    000208 704  0.3+  1.1-
000131 704  0.5-  0.4-    000205 704  0.1-  0.2+    000208 704  0.5+  0.2-
000131 704  0.0   0.0     000205 704  0.1+  0.0     000211 704  0.3+  0.4-
000201 046  0.5+  0.1+    000205 704  0.5+  0.1+    000211 704  0.1-  0.3+
000201 046  0.2+  0.0     000205 704  0.6-  0.6-    000211 704  0.4+  0.2+
000201 046  0.3+  0.2-    000205 704  0.2+  0.3+    000211 704  0.4+  1.1+
000201 046  1.2+  0.0     000205 704  0.3+  0.3+    000211 704  0.2-  1.4+
000202 118  0.6+  0.1-    000205 704  0.7-  0.1+    000224 703  0.3+  0.8+
000202 118  0.6+  0.2-    000205 704  0.2+  0.8-    000224 703  1.4-  0.1+
000202 118  0.6+  0.1-    000205 704  0.7+  0.6+    000224 703  0.5-  0.0
000202 704  0.1-  0.1-    000205 704  0.1-  0.3-    000224 703  0.2+  0.4+
000202 704  0.1-  0.1+    000205 704  0.6-  0.1-    000224 413  0.2+  0.6-
000202 704  0.7-  0.1-    000205 704  0.2+  0.8+    000224 413  0.1+  0.1-
000202 704  0.3-  0.3-    000205 704  0.2-  0.0     000224 104  0.7-  0.5-
000202 704  0.3-  0.1+    000205 704  0.0   0.1-    000224 104  0.4-  0.6-
000202 422  0.1+  0.5-    000205 704  0.2-  0.0     000224 104  0.7-  0.4+
000202 422  0.6-  0.2-    000205 704  0.2-  0.0     000227 360  0.7+  0.5-
000202 422  0.7-  0.3-    000205 704  0.2+  0.1-    000227 360  0.1+  0.2-
000203 858  0.2-  0.3-    000205 704  0.7+  0.8+    000227 360  0.1-  0.3-
000203 858  0.1-  0.1-    000205 704  0.1+  0.7-    000228 747  0.2+  0.2-
000203 858  0.1-  0.0     000205 704  0.7-  0.2+    000228 747  0.0   0.0
000203 704  0.4+  0.2-    000205 704  0.9+  0.0     000228 747  0.1-  0.1+
000203 704  0.2-  0.3-    000205 704  0.5+  0.4+    000228 747  0.0   0.3-
000203 704  0.8-  0.2+    000205 704  0.2-  0.2+    000228 747  0.2-  0.1+
000203 704  0.2+  0.5+    000205 704  0.1-  0.4+    000228 046  0.4+  0.2+
000203 704  0.2-  0.5+    000206 704  0.3-  0.2+    000228 046  0.9+  0.2+
000203 704  0.1+  0.2+    000206 704  0.6+  0.3-    000306 046  0.1-  0.4+
000203 704  0.4+  0.3+    000206 704  0.1+  0.3+    000306 046  0.1-  0.3-
000203 704  0.0   0.5+    000206 704  0.1-  0.6+    000306 046  0.1+  0.3+
000203 704  0.1-  0.1-    000206 704  0.1+  0.2-    000306 046  0.7-  0.1+
000203 670  0.2-  0.5-    000206 704  0.0   0.9+    000306 046  0.8+  0.2-
000203 704  0.1-  0.6+    000206 704  0.9+  0.2+
000203 670  0.4+  1.2-    000206 704  0.4-  0.2+

Ephemeris:
2000 BJ19                a,e,i = 1.29, 0.76, 31                  q = 0.3052
Date    TT    R. A. (2000) Decl.     Delta      r     Elong.  Phase     V
2000 03 07    07 55.80   +26 08.7    1.380    2.147   128.9    21.1    19.1
2000 03 12    07 49.78   +26 48.9    1.424    2.129   122.5    23.2    19.2
2000 03 17    07 45.03   +27 22.7    1.470    2.110   116.4    25.0    19.3
2000 03 22    07 41.54   +27 50.8    1.520    2.090   110.6    26.5    19.4
2000 03 27    07 39.24   +28 14.0    1.570    2.068   105.1    27.8    19.5
2000 04 01    07 38.08   +28 33.0    1.621    2.045    99.9    28.8    19.6
2000 04 06    07 37.97   +28 48.3    1.672    2.021    94.9    29.6    19.6
2000 04 11    07 38.84   +29 00.5    1.722    1.996    90.2    30.1    19.7
2000 04 16    07 40.61   +29 09.8    1.771    1.969    85.7    30.6    19.7
2000 04 21    07 43.18   +29 16.5    1.817    1.941    81.4    30.8    19.8
2000 04 26    07 46.51   +29 20.9    1.861    1.911    77.3    30.9    19.8
2000 05 01    07 50.52   +29 23.1    1.902    1.880    73.3    30.9    19.8
2000 05 06    07 55.17   +29 23.2    1.939    1.847    69.6    30.8    19.8
2000 05 11    08 00.41   +29 21.2    1.973    1.813    65.9    30.6    19.8
2000 05 16    08 06.18   +29 17.2    2.003    1.777    62.4    30.3    19.8

Gareth V. Williams           (C) Copyright 2000 MPC           M.P.E.C. 2000-E63

Read MPEC 2000-E62 Read MPEC 2000-E64


Our Web policy. Index to the CBAT/MPC/ICQ pages.


Valid HTML 4.01!